| time (UTC) | temp F | wind direction | speed knots | gust knots | rain 1hr in | rain 24hr in | rain mn in | humidity % | barometer mb |
| 20260510154832 | 80 | 156 | 3.5 | 4.3 | 0.00 | 0.00 | 0.00 | 87 | 1014.0 |
| 20260510154327 | 79 | 109 | 2.6 | 5.2 | 0.00 | 0.00 | 0.00 | 88 | 1014.2 |
| 20260510153822 | 79 | 111 | 3.5 | 5.2 | 0.00 | 0.00 | 0.00 | 88 | 1014.0 |
| 20260510153318 | 79 | 90 | 0.0 | 3.5 | 0.00 | 0.00 | 0.00 | 89 | 1014.1 |
| 20260510152815 | 79 | 141 | 3.5 | 6.1 | 0.00 | 0.00 | 0.00 | 87 | 1014.1 |
| 20260510152312 | 79 | 76 | 5.2 | 5.2 | 0.00 | 0.00 | 0.00 | 89 | 1014.1 |
| 20260510151809 | 79 | 148 | 0.0 | 3.5 | 0.00 | 0.00 | 0.00 | 88 | 1014.1 |
| 20260510151307 | 79 | 146 | 2.6 | 4.3 | 0.00 | 0.00 | 0.00 | 88 | 1013.9 |
| 20260510150802 | 79 | 77 | 1.7 | 2.6 | 0.00 | 0.00 | 0.00 | 88 | 1013.7 |
| 20260510150258 | 78 | 141 | 0.0 | 4.3 | 0.00 | 0.00 | 0.00 | 90 | 1014.0 |
| 20260510145754 | 79 | 108 | 1.7 | 7.8 | 0.00 | 0.00 | 0.00 | 88 | 1013.9 |
| 20260510145251 | 78 | 151 | 3.5 | 5.2 | 0.00 | 0.00 | 0.00 | 88 | 1014.1 |
| 20260510144747 | 78 | 114 | 1.7 | 4.3 | 0.00 | 0.00 | 0.00 | 89 | 1014.1 |
| 20260510144243 | 78 | 90 | 1.7 | 3.5 | 0.00 | 0.00 | 0.00 | 90 | 1014.2 |
| 20260510143738 | 78 | 47 | 2.6 | 5.2 | 0.00 | 0.00 | 0.00 | 90 | 1014.1 |
| 20260510143235 | 77 | 26 | 2.6 | 3.5 | 0.00 | 0.00 | 0.00 | 92 | 1014.0 |
| 20260510142731 | 76 | 65 | 5.2 | 7.8 | 0.00 | 0.00 | 0.00 | 92 | 1014.2 |
| 20260510142228 | 75 | 90 | 0.0 | 7.0 | 0.00 | 0.00 | 0.00 | 94 | 1014.5 |
| 20260510141725 | 75 | 103 | 0.9 | 4.3 | 0.00 | 0.00 | 0.00 | 96 | 1014.3 |
| 20260510141224 | 74 | 117 | 2.6 | 6.1 | 0.00 | 0.00 | 0.00 | 96 | 1014.3 |
| 20260510140720 | 73 | 87 | 2.6 | 6.1 | 0.00 | 0.00 | 0.00 | 97 | 1014.4 |
| 20260510140220 | 73 | 77 | 3.5 | 3.5 | 0.00 | 0.00 | 0.00 | 98 | 1014.3 |
| 20260510135714 | 72 | 25 | 2.6 | 5.2 | 0.00 | 0.00 | 0.00 | 98 | 1014.2 |
| 20260510135210 | 72 | 94 | 2.6 | 7.8 | 0.00 | 0.00 | 0.00 | 98 | 1014.0 |
| 20260510134708 | 72 | 85 | 3.5 | 6.1 | 0.00 | 0.00 | 0.00 | 99 | 1014.0 |
| 20260510134205 | 71 | 113 | 4.3 | 7.8 | 0.00 | 0.00 | 0.00 | 99 | 1014.1 |
| 20260510133700 | 71 | 90 | 4.3 | 6.1 | 0.00 | 0.00 | 0.00 | 99 | 1013.9 |
| 20260510133156 | 71 | 95 | 2.6 | 6.1 | 0.00 | 0.00 | 0.00 | 99 | 1013.9 |
| 20260510132653 | 71 | 97 | 3.5 | 8.7 | 0.00 | 0.00 | 0.00 | 99 | 1013.5 |
| 20260510132150 | 71 | 105 | 3.5 | 8.7 | 0.00 | 0.00 | 0.00 | 99 | 1013.6 |
| 20260510131648 | 71 | 90 | 0.9 | 11.3 | 0.00 | 0.00 | 0.00 | 99 | 1013.6 |
| 20260510131145 | 71 | 28 | 1.7 | 5.2 | 0.00 | 0.00 | 0.00 | 98 | 1013.4 |
| 20260510130641 | 72 | 63 | 3.5 | 5.2 | 0.00 | 0.00 | 0.00 | 97 | 1013.6 |
| 20260510130139 | 72 | 60 | 2.6 | 3.5 | 0.00 | 0.00 | 0.00 | 97 | 1013.0 |
| 20260510125635 | 71 | 73 | 2.6 | 5.2 | 0.00 | 0.00 | 0.00 | 97 | 1013.1 |
| 20260510125131 | 71 | 71 | 0.0 | 3.5 | 0.00 | 0.00 | 0.00 | 98 | 1012.9 |
| 20260510124628 | 71 | 95 | 1.7 | 4.3 | 0.00 | 0.00 | 0.00 | 99 | 1012.9 |
| 20260510124125 | 70 | 82 | 2.6 | 3.5 | 0.00 | 0.00 | 0.00 | 99 | 1012.9 |
| 20260510123620 | 69 | 98 | 0.9 | 5.2 | 0.00 | 0.00 | 0.00 | 99 | 1012.9 |
| 20260510123117 | 69 | 36 | 1.7 | 3.5 | 0.00 | 0.00 | 0.00 | 99 | 1012.5 |
| 20260510122612 | 69 | 65 | 1.7 | 1.7 | 0.00 | 0.00 | 0.00 | 99 | 1012.6 |
| 20260510122108 | 68 | 54 | 0.0 | 1.7 | 0.00 | 0.00 | 0.00 | 99 | 1012.4 |
| 20260510121606 | 67 | 83 | 0.9 | 1.7 | 0.00 | 0.00 | 0.00 | 99 | 1012.1 |
| 20260510121103 | 66 | 18 | 0.0 | 1.7 | 0.00 | 0.00 | 0.00 | 99 | 1011.9 |
| 20260510120601 | 66 | 66 | 0.0 | 0.0 | 0.00 | 0.00 | 0.00 | 99 | 1012.1 |
| 20260510120055 | 66 | 66 | 0.0 | 0.0 | 0.00 | 0.00 | 0.00 | 99 | 1011.9 |
| 20260510115552 | 65 | 66 | 0.0 | 0.0 | 0.00 | 0.00 | 0.00 | 99 | 1011.6 |
| 20260510115050 | 65 | 66 | 0.0 | 0.9 | 0.00 | 0.00 | 0.00 | 99 | 1011.7 |
| 20260510114545 | 65 | 90 | 0.0 | 0.0 | 0.00 | 0.00 | 0.00 | 99 | 1011.5 |
| 20260510114042 | 65 | 120 | 0.0 | 0.0 | 0.00 | 0.00 | 0.00 | 99 | 1011.5 |
| 20260510113537 | 65 | 120 | 0.0 | 0.0 | 0.00 | 0.00 | 0.00 | 99 | 1011.5 |
| 20260510113035 | 66 | 111 | 0.0 | 0.9 | 0.00 | 0.00 | 0.00 | 99 | 1011.5 |
| 20260510112531 | 66 | 84 | 0.0 | 0.9 | 0.00 | 0.00 | 0.00 | 99 | 1011.7 |
| 20260510112028 | 66 | 41 | 0.0 | 2.6 | 0.00 | 0.00 | 0.00 | 99 | 1011.3 |
| 20260510111524 | 67 | 90 | 1.7 | 2.6 | 0.00 | 0.00 | 0.00 | 99 | 1011.5 |
| 20260510111020 | 66 | 60 | 1.7 | 2.6 | 0.00 | 0.00 | 0.00 | 99 | 1011.4 |
| 20260510110516 | 67 | 53 | 0.0 | 1.7 | 0.00 | 0.00 | 0.00 | 99 | 1011.2 |
| 20260510110013 | 67 | 9 | 1.7 | 2.6 | 0.00 | 0.00 | 0.00 | 99 | 1011.1 |
| 20260510105508 | 67 | 15 | 0.0 | 1.7 | 0.00 | 0.00 | 0.00 | 99 | 1011.0 |
| 20260510105003 | 67 | 23 | 1.7 | 1.7 | 0.00 | 0.00 | 0.00 | 99 | 1010.9 |
| 20260510104500 | 67 | 0 | 0.9 | 1.7 | 0.00 | 0.00 | 0.00 | 99 | 1010.6 |
| 20260510103956 | 67 | 352 | 0.0 | 0.9 | 0.00 | 0.00 | 0.00 | 99 | 1010.4 |
| 20260510103454 | 67 | 14 | 0.0 | 0.9 | 0.00 | 0.00 | 0.00 | 99 | 1010.5 |
| 20260510102949 | 68 | 283 | 0.0 | 0.9 | 0.00 | 0.00 | 0.00 | 99 | 1010.2 |
| 20260510102445 | 68 | 157 | 0.0 | 1.7 | 0.00 | 0.00 | 0.00 | 99 | 1010.2 |
| 20260510101942 | 68 | 235 | 0.0 | 1.7 | 0.00 | 0.00 | 0.00 | 99 | 1009.8 |
| 20260510101440 | 68 | 225 | 0.0 | 2.6 | 0.00 | 0.00 | 0.00 | 99 | 1010.2 |
| 20260510100938 | 68 | 119 | 1.7 | 1.7 | 0.00 | 0.00 | 0.00 | 99 | 1010.0 |
| 20260510100434 | 68 | 41 | 0.0 | 1.7 | 0.00 | 0.00 | 0.00 | 99 | 1010.0 |
| 20260510095930 | 68 | 81 | 0.0 | 0.9 | 0.00 | 0.00 | 0.00 | 99 | 1009.9 |
| 20260510095426 | 68 | 112 | 0.0 | 1.7 | 0.00 | 0.00 | 0.00 | 99 | 1010.0 |
| 20260510094925 | 68 | 203 | 0.0 | 0.0 | 0.00 | 0.00 | 0.00 | 98 | 1009.9 |
| 20260510094420 | 68 | 203 | 0.0 | 0.9 | 0.00 | 0.00 | 0.00 | 98 | 1010.0 |
| 20260510093917 | 69 | 254 | 0.0 | 0.0 | 0.00 | 0.00 | 0.00 | 98 | 1009.8 |
| 20260510093412 | 69 | 241 | 0.0 | 1.7 | 0.00 | 0.00 | 0.00 | 98 | 1009.9 |
| 20260510092910 | 69 | 106 | 0.0 | 1.7 | 0.00 | 0.00 | 0.00 | 97 | 1010.0 |
| 20260510092407 | 69 | 99 | 0.0 | 0.9 | 0.00 | 0.00 | 0.00 | 97 | 1010.0 |
| 20260510091907 | 69 | 233 | 1.7 | 1.7 | 0.00 | 0.00 | 0.00 | 97 | 1009.8 |
| 20260510091404 | 70 | 135 | 1.7 | 2.6 | 0.00 | 0.00 | 0.00 | 96 | 1009.8 |
| 20260510090901 | 70 | 120 | 0.0 | 2.6 | 0.00 | 0.00 | 0.00 | 96 | 1009.9 |
| 20260510090357 | 70 | 240 | 0.0 | 1.7 | 0.00 | 0.00 | 0.00 | 96 | 1009.8 |
| 20260510085853 | 70 | 239 | 1.7 | 7.0 | 0.00 | 0.00 | 0.00 | 95 | 1009.9 |
| 20260510085348 | 70 | 210 | 1.7 | 4.3 | 0.00 | 0.00 | 0.00 | 95 | 1009.8 |
| 20260510084844 | 70 | 156 | 3.5 | 4.3 | 0.00 | 0.00 | 0.00 | 95 | 1009.7 |
| 20260510084342 | 70 | 222 | 2.6 | 4.3 | 0.00 | 0.00 | 0.00 | 95 | 1009.8 |
| 20260510083838 | 71 | 212 | 2.6 | 3.5 | 0.00 | 0.00 | 0.00 | 94 | 1010.0 |
| 20260510083335 | 71 | 236 | 2.6 | 4.3 | 0.00 | 0.00 | 0.00 | 94 | 1010.1 |
| 20260510082830 | 71 | 197 | 0.0 | 2.6 | 0.00 | 0.00 | 0.00 | 94 | 1010.2 |
| 20260510082327 | 71 | 257 | 0.0 | 4.3 | 0.00 | 0.00 | 0.00 | 94 | 1010.0 |
| 20260510081826 | 71 | 221 | 1.7 | 3.5 | 0.00 | 0.00 | 0.00 | 93 | 1010.0 |
| 20260510081317 | 71 | 195 | 1.7 | 3.5 | 0.00 | 0.00 | 0.00 | 93 | 1010.1 |
| 20260510080813 | 71 | 238 | 0.0 | 5.2 | 0.00 | 0.00 | 0.00 | 93 | 1010.2 |
| 20260510080308 | 71 | 199 | 2.6 | 5.2 | 0.00 | 0.00 | 0.00 | 93 | 1010.2 |
| 20260510075805 | 71 | 235 | 3.5 | 6.1 | 0.00 | 0.00 | 0.00 | 92 | 1010.3 |
| 20260510075306 | 72 | 173 | 2.6 | 6.1 | 0.00 | 0.00 | 0.00 | 92 | 1010.1 |
| 20260510074759 | 71 | 200 | 0.9 | 2.6 | 0.00 | 0.00 | 0.00 | 92 | 1010.2 |
| 20260510074256 | 71 | 180 | 0.9 | 4.3 | 0.00 | 0.00 | 0.00 | 92 | 1010.4 |
| 20260510073752 | 72 | 183 | 2.6 | 2.6 | 0.00 | 0.00 | 0.00 | 92 | 1010.3 |
| 20260510073248 | 72 | 152 | 3.5 | 5.2 | 0.00 | 0.00 | 0.00 | 91 | 1010.3 |
| 20260510072744 | 72 | 206 | 1.7 | 7.0 | 0.00 | 0.00 | 0.00 | 91 | 1010.1 |
| 20260510072241 | 72 | 204 | 0.0 | 6.1 | 0.00 | 0.00 | 0.00 | 91 | 1010.2 |
| 20260510071737 | 72 | 180 | 1.7 | 5.2 | 0.00 | 0.00 | 0.00 | 91 | 1010.1 |
| 20260510071234 | 72 | 188 | 0.0 | 7.0 | 0.00 | 0.00 | 0.00 | 91 | 1010.4 |
| 20260510070733 | 72 | 180 | 0.9 | 6.1 | 0.00 | 0.00 | 0.00 | 90 | 1010.1 |
| 20260510070229 | 72 | 174 | 2.6 | 7.0 | 0.00 | 0.00 | 0.00 | 90 | 1010.0 |
| 20260510065724 | 72 | 152 | 1.7 | 4.3 | 0.00 | 0.00 | 0.00 | 90 | 1010.2 |
| 20260510065221 | 73 | 165 | 3.5 | 5.2 | 0.00 | 0.00 | 0.00 | 90 | 1010.3 |
| 20260510064717 | 73 | 206 | 0.0 | 4.3 | 0.00 | 0.00 | 0.00 | 89 | 1010.4 |
| 20260510064215 | 73 | 165 | 1.7 | 3.5 | 0.00 | 0.00 | 0.00 | 89 | 1010.4 |
| 20260510063711 | 73 | 180 | 0.9 | 6.1 | 0.00 | 0.00 | 0.00 | 89 | 1010.5 |
| 20260510063207 | 73 | 140 | 5.2 | 7.0 | 0.00 | 0.00 | 0.00 | 89 | 1010.4 |
| 20260510062704 | 73 | 144 | 0.0 | 5.2 | 0.00 | 0.00 | 0.00 | 89 | 1010.5 |
| 20260510062201 | 73 | 75 | 0.9 | 3.5 | 0.00 | 0.00 | 0.00 | 89 | 1010.3 |
| 20260510061655 | 73 | 263 | 0.0 | 4.3 | 0.00 | 0.00 | 0.00 | 89 | 1010.5 |
| 20260510061153 | 73 | 145 | 2.6 | 4.3 | 0.00 | 0.00 | 0.00 | 89 | 1010.4 |
| 20260510060649 | 72 | 110 | 0.0 | 4.3 | 0.00 | 0.00 | 0.00 | 89 | 1010.5 |
| 20260510060146 | 72 | 97 | 0.0 | 3.5 | 0.00 | 0.00 | 0.00 | 90 | 1010.6 |
| 20260510055642 | 72 | 147 | 2.6 | 2.6 | 0.00 | 0.00 | 0.00 | 90 | 1010.5 |
| 20260510055140 | 72 | 114 | 2.6 | 2.6 | 0.00 | 0.00 | 0.00 | 90 | 1010.3 |
| 20260510054636 | 71 | 84 | 0.0 | 0.9 | 0.00 | 0.00 | 0.00 | 91 | 1010.6 |
| 20260510054132 | 71 | 69 | 0.0 | 2.6 | 0.00 | 0.00 | 0.00 | 91 | 1010.4 |
| 20260510053631 | 71 | 45 | 0.0 | 1.7 | 0.00 | 0.00 | 0.00 | 91 | 1010.4 |
| 20260510053128 | 71 | 120 | 0.0 | 1.7 | 0.00 | 0.00 | 0.00 | 91 | 1010.4 |
| 20260510052623 | 71 | 90 | 0.0 | 1.7 | 0.00 | 0.00 | 0.00 | 91 | 1010.5 |
| 20260510052119 | 72 | 75 | 0.0 | 1.7 | 0.00 | 0.00 | 0.00 | 91 | 1010.5 |
| 20260510051609 | 72 | 105 | 0.0 | 1.7 | 0.00 | 0.00 | 0.00 | 91 | 1010.5 |
| 20260510051107 | 72 | 159 | 0.0 | 3.5 | 0.00 | 0.00 | 0.00 | 91 | 1010.3 |
| 20260510050604 | 71 | 99 | 0.0 | 1.7 | 0.00 | 0.00 | 0.00 | 92 | 1010.3 |
| 20260510050100 | 71 | 355 | 0.0 | 2.6 | 0.00 | 0.00 | 0.00 | 92 | 1010.4 |
| 20260510045558 | 71 | 106 | 2.6 | 5.2 | 0.00 | 0.00 | 0.00 | 94 | 1010.3 |
| 20260510045054 | 71 | 112 | 2.6 | 5.2 | 0.00 | 0.00 | 0.00 | 96 | 1010.3 |
| 20260510044550 | 69 | 106 | 0.0 | 5.2 | 0.00 | 0.00 | 0.00 | 99 | 1010.4 |
| 20260510044048 | 68 | 132 | 1.7 | 2.6 | 0.00 | 0.00 | 0.00 | 99 | 1010.6 |
| 20260510043543 | 69 | 82 | 0.0 | 0.9 | 0.00 | 0.00 | 0.00 | 99 | 1010.4 |
| 20260510043039 | 69 | 0 | 0.0 | 0.0 | 0.00 | 0.00 | 0.00 | 99 | 1010.1 |
| 20260510042533 | 69 | 0 | 0.0 | 0.9 | 0.00 | 0.00 | 0.00 | 99 | 1010.1 |
| 20260510042028 | 69 | 66 | 0.0 | 0.0 | 0.00 | 0.00 | 0.00 | 99 | 1010.4 |
| 20260510041526 | 69 | 69 | 0.0 | 0.0 | 0.00 | 0.00 | 0.00 | 99 | 1010.4 |
| 20260510041023 | 69 | 352 | 0.0 | 1.7 | 0.00 | 0.00 | 0.00 | 99 | 1010.2 |
| 20260510040519 | 69 | 0 | 0.0 | 0.0 | 0.00 | 0.00 | 0.00 | 99 | 1010.3 |
| 20260510040014 | 69 | 66 | 0.0 | 0.9 | 0.00 | 0.00 | 0.00 | 99 | 1010.3 |
| 20260510035512 | 69 | 74 | 0.0 | 0.0 | 0.00 | 0.00 | 0.00 | 99 | 1010.2 |
| 20260510035010 | 69 | 74 | 0.0 | 0.9 | 0.00 | 0.00 | 0.00 | 98 | 1010.0 |
| 20260510034510 | 69 | 90 | 0.0 | 0.0 | 0.00 | 0.00 | 0.00 | 98 | 1009.9 |
| 20260510034006 | 69 | 90 | 0.0 | 0.0 | 0.00 | 0.00 | 0.00 | 98 | 1009.6 |
| 20260510033503 | 69 | 90 | 0.0 | 0.0 | 0.00 | 0.00 | 0.00 | 98 | 1009.6 |
| 20260510033001 | 69 | 90 | 0.0 | 0.0 | 0.00 | 0.00 | 0.00 | 98 | 1009.8 |
| 20260510032457 | 70 | 90 | 0.0 | 0.0 | 0.00 | 0.00 | 0.00 | 98 | 1009.4 |
| 20260510031957 | 70 | 15 | 0.0 | 0.0 | 0.00 | 0.00 | 0.00 | 98 | 1009.3 |
| 20260510031453 | 70 | 15 | 0.0 | 0.0 | 0.00 | 0.00 | 0.00 | 98 | 1009.5 |
| 20260510030949 | 70 | 15 | 0.0 | 0.0 | 0.00 | 0.00 | 0.00 | 97 | 1009.1 |
| 20260510030444 | 70 | 15 | 0.0 | 0.9 | 0.00 | 0.00 | 0.00 | 97 | 1009.4 |
| 20260510025942 | 70 | 90 | 0.9 | 2.6 | 0.00 | 0.00 | 0.00 | 97 | 1009.3 |
| 20260510025439 | 71 | 234 | 0.9 | 1.7 | 0.00 | 0.00 | 0.00 | 96 | 1009.2 |
| 20260510024937 | 71 | 99 | 0.0 | 0.0 | 0.00 | 0.00 | 0.00 | 95 | 1009.1 |
| 20260510024433 | 71 | 99 | 0.0 | 0.9 | 0.00 | 0.00 | 0.00 | 95 | 1009.3 |
| 20260510023929 | 71 | 71 | 0.9 | 1.7 | 0.00 | 0.00 | 0.00 | 94 | 1009.0 |
| 20260510023425 | 71 | 66 | 0.0 | 0.0 | 0.00 | 0.00 | 0.00 | 93 | 1009.0 |
| 20260510022923 | 72 | 66 | 0.0 | 1.7 | 0.00 | 0.00 | 0.00 | 93 | 1009.0 |
| 20260510022421 | 72 | 63 | 0.0 | 1.7 | 0.00 | 0.00 | 0.00 | 93 | 1008.9 |
| 20260510021921 | 72 | 345 | 0.0 | 0.9 | 0.00 | 0.00 | 0.00 | 92 | 1008.9 |
| 20260510021419 | 72 | 7 | 0.0 | 0.9 | 0.00 | 0.00 | 0.00 | 92 | 1008.8 |
| 20260510020915 | 73 | 90 | 0.0 | 0.0 | 0.00 | 0.00 | 0.00 | 91 | 1008.9 |
| 20260510020410 | 73 | 90 | 0.0 | 0.0 | 0.00 | 0.00 | 0.00 | 90 | 1008.7 |
| 20260510015906 | 73 | 66 | 0.0 | 0.0 | 0.00 | 0.00 | 0.00 | 89 | 1008.6 |
| 20260510015402 | 74 | 66 | 0.0 | 0.0 | 0.00 | 0.00 | 0.00 | 89 | 1008.5 |
| 20260510014857 | 74 | 74 | 0.0 | 1.7 | 0.00 | 0.00 | 0.00 | 89 | 1008.4 |
| 20260510014355 | 75 | 286 | 0.0 | 1.7 | 0.00 | 0.00 | 0.00 | 88 | 1008.3 |
| 20260510013851 | 75 | 270 | 0.0 | 0.0 | 0.00 | 0.00 | 0.00 | 86 | 1008.3 |
| 20260510013347 | 76 | 234 | 0.0 | 0.9 | 0.00 | 0.00 | 0.00 | 86 | 1008.0 |
| 20260510012841 | 76 | 206 | 0.0 | 0.0 | 0.00 | 0.00 | 0.00 | 86 | 1008.1 |
| 20260510012336 | 76 | 209 | 0.0 | 2.6 | 0.00 | 0.00 | 0.00 | 86 | 1008.1 |
| 20260510011831 | 77 | 195 | 0.0 | 0.9 | 0.00 | 0.00 | 0.00 | 85 | 1008.3 |
| 20260510011326 | 77 | 29 | 0.0 | 1.7 | 0.00 | 0.00 | 0.00 | 84 | 1008.1 |
| 20260510010823 | 77 | 98 | 0.0 | 0.9 | 0.00 | 0.00 | 0.00 | 85 | 1007.9 |
| 20260510010321 | 78 | 147 | 0.0 | 1.7 | 0.00 | 0.00 | 0.00 | 84 | 1007.8 |
| 20260510005817 | 79 | 90 | 0.0 | 0.0 | 0.00 | 0.00 | 0.00 | 82 | 1007.8 |
| 20260510005313 | 80 | 270 | 0.0 | 0.0 | 0.00 | 0.00 | 0.00 | 79 | 1007.8 |
| 20260510004811 | 81 | 279 | 0.9 | 1.7 | 0.00 | 0.00 | 0.00 | 78 | 1008.0 |
| 20260510004308 | 81 | 249 | 0.0 | 0.0 | 0.00 | 0.00 | 0.00 | 77 | 1007.7 |
| 20260510003806 | 81 | 249 | 0.0 | 0.9 | 0.00 | 0.00 | 0.00 | 76 | 1007.7 |
| 20260510003303 | 81 | 209 | 0.0 | 2.6 | 0.00 | 0.00 | 0.00 | 76 | 1007.7 |
| 20260510002801 | 82 | 225 | 2.6 | 2.6 | 0.00 | 0.00 | 0.00 | 75 | 1007.7 |
| 20260510002259 | 83 | 215 | 2.6 | 4.3 | 0.00 | 0.00 | 0.00 | 73 | 1007.6 |
| 20260510001755 | 84 | 259 | 1.7 | 2.6 | 0.00 | 0.00 | 0.00 | 73 | 1007.7 |
| 20260510001254 | 84 | 156 | 1.7 | 1.7 | 0.00 | 0.00 | 0.00 | 71 | 1007.6 |
| 20260510000749 | 84 | 209 | 0.9 | 2.6 | 0.00 | 0.00 | 0.00 | 71 | 1007.8 |
| 20260510000248 | 84 | 206 | 2.6 | 3.5 | 0.00 | 0.00 | 0.00 | 71 | 1007.6 |
| 20260509235744 | 84 | 161 | 0.0 | 4.3 | 0.00 | 0.00 | 0.00 | 70 | 1007.6 |
| 20260509235240 | 84 | 234 | 0.9 | 5.2 | 0.00 | 0.00 | 0.00 | 71 | 1007.8 |
| 20260509234736 | 84 | 207 | 3.5 | 5.2 | 0.00 | 0.00 | 0.00 | 70 | 1007.8 |
| 20260509234233 | 84 | 212 | 2.6 | 8.7 | 0.00 | 0.00 | 0.00 | 71 | 1007.6 |
| 20260509233731 | 88 | 225 | 2.6 | 6.1 | 0.00 | 0.00 | 0.00 | 72 | 1007.6 |
| 20260509233228 | 88 | 79 | 1.7 | 3.5 | 0.00 | 0.00 | 0.00 | 73 | 1007.5 |
| 20260509232724 | 88 | 180 | 0.0 | 3.5 | 0.00 | 0.00 | 0.00 | 73 | 1007.4 |
| 20260509232222 | 88 | 84 | 1.7 | 2.6 | 0.00 | 0.00 | 0.00 | 75 | 1007.6 |
| 20260509231718 | 88 | 95 | 3.5 | 5.2 | 0.00 | 0.00 | 0.00 | 74 | 1007.7 |
| 20260509231215 | 90 | 103 | 0.9 | 2.6 | 0.00 | 0.00 | 0.00 | 73 | 1007.4 |
| 20260509230713 | 89 | 157 | 0.0 | 3.5 | 0.00 | 0.00 | 0.00 | 74 | 1007.2 |
| 20260509230209 | 89 | 99 | 2.6 | 4.3 | 0.00 | 0.00 | 0.00 | 73 | 1007.2 |
| 20260509225705 | 91 | 95 | 1.7 | 2.6 | 0.00 | 0.00 | 0.00 | 71 | 1007.1 |
| 20260509225201 | 91 | 150 | 0.0 | 1.7 | 0.00 | 0.00 | 0.00 | 70 | 1007.3 |
| 20260509224656 | 89 | 74 | 0.0 | 0.0 | 0.00 | 0.00 | 0.00 | 70 | 1007.1 |
| 20260509224154 | 91 | 62 | 5.2 | 5.2 | 0.00 | 0.00 | 0.00 | 70 | 1006.9 |
| 20260509223650 | 90 | 0 | 1.7 | 3.5 | 0.00 | 0.00 | 0.00 | 71 | 1007.3 |
| 20260509223148 | 90 | 352 | 0.0 | 0.0 | 0.00 | 0.00 | 0.00 | 70 | 1006.9 |
| 20260509222645 | 89 | 68 | 4.3 | 4.3 | 0.00 | 0.00 | 0.00 | 72 | 1007.0 |
| 20260509222140 | 88 | 60 | 0.9 | 3.5 | 0.00 | 0.00 | 0.00 | 75 | 1006.9 |
| 20260509221636 | 87 | 19 | 1.7 | 3.5 | 0.00 | 0.00 | 0.00 | 76 | 1006.7 |
| 20260509221132 | 86 | 7 | 0.0 | 1.7 | 0.00 | 0.00 | 0.00 | 80 | 1006.8 |
| 20260509220628 | 86 | 14 | 0.0 | 1.7 | 0.00 | 0.00 | 0.00 | 81 | 1006.9 |
| 20260509220124 | 86 | 20 | 0.0 | 0.9 | 0.00 | 0.00 | 0.00 | 82 | 1006.8 |
| 20260509215620 | 86 | 8 | 0.0 | 0.0 | 0.00 | 0.00 | 0.00 | 79 | 1006.9 |
| 20260509215117 | 86 | 8 | 0.0 | 0.0 | 0.00 | 0.00 | 0.00 | 82 | 1007.1 |
| 20260509214614 | 86 | 15 | 0.0 | 0.9 | 0.00 | 0.00 | 0.00 | 80 | 1007.2 |
| 20260509214111 | 87 | 352 | 0.0 | 0.0 | 0.00 | 0.00 | 0.00 | 79 | 1007.0 |
| 20260509213607 | 86 | 66 | 0.0 | 1.7 | 0.00 | 0.00 | 0.00 | 79 | 1007.0 |
| 20260509213104 | 87 | 26 | 0.0 | 0.9 | 0.00 | 0.00 | 0.00 | 78 | 1007.2 |
| 20260509212601 | 88 | 8 | 0.0 | 0.9 | 0.00 | 0.00 | 0.00 | 76 | 1007.4 |
| 20260509212058 | 87 | 15 | 0.0 | 0.9 | 0.00 | 0.00 | 0.00 | 74 | 1007.4 |
| 20260509211554 | 87 | 23 | 0.0 | 1.7 | 0.00 | 0.00 | 0.00 | 77 | 1007.2 |
| 20260509211050 | 88 | 37 | 0.0 | 1.7 | 0.00 | 0.00 | 0.00 | 77 | 1007.7 |
| 20260509210548 | 89 | 270 | 0.0 | 0.9 | 0.00 | 0.00 | 0.00 | 73 | 1007.5 |
| 20260509210044 | 89 | 334 | 0.0 | 2.6 | 0.00 | 0.00 | 0.00 | 71 | 1007.7 |
| 20260509205538 | 89 | 37 | 2.6 | 4.3 | 0.00 | 0.00 | 0.00 | 71 | 1007.4 |
| 20260509205034 | 90 | 275 | 1.7 | 5.2 | 0.00 | 0.00 | 0.00 | 74 | 1007.7 |
| 20260509204530 | 90 | 346 | 2.6 | 3.5 | 0.00 | 0.00 | 0.00 | 70 | 1007.4 |
| 20260509204027 | 90 | 14 | 0.0 | 3.5 | 0.00 | 0.00 | 0.00 | 74 | 1007.6 |
| 20260509203522 | 90 | 7 | 0.9 | 1.7 | 0.00 | 0.00 | 0.00 | 74 | 1007.5 |
| 20260509203022 | 88 | 263 | 0.0 | 1.7 | 0.00 | 0.00 | 0.00 | 72 | 1007.6 |
| 20260509202520 | 88 | 243 | 0.0 | 2.6 | 0.00 | 0.00 | 0.00 | 72 | 1008.1 |
| 20260509202017 | 89 | 294 | 0.9 | 3.5 | 0.00 | 0.00 | 0.00 | 75 | 1008.0 |
| 20260509201511 | 89 | 0 | 0.0 | 0.9 | 0.00 | 0.00 | 0.00 | 76 | 1008.0 |
| 20260509201009 | 89 | 14 | 0.9 | 2.6 | 0.00 | 0.00 | 0.00 | 72 | 1008.2 |
| 20260509200504 | 88 | 206 | 0.0 | 1.7 | 0.00 | 0.00 | 0.00 | 74 | 1008.1 |
| 20260509200001 | 90 | 206 | 2.6 | 3.5 | 0.00 | 0.00 | 0.00 | 72 | 1008.3 |
| 20260509195456 | 88 | 228 | 1.7 | 3.5 | 0.00 | 0.00 | 0.00 | 76 | 1008.2 |
| 20260509194956 | 88 | 180 | 0.0 | 3.5 | 0.00 | 0.00 | 0.00 | 74 | 1008.3 |
| 20260509194451 | 89 | 114 | 0.0 | 2.6 | 0.00 | 0.00 | 0.00 | 73 | 1008.4 |
| 20260509193948 | 88 | 20 | 0.9 | 2.6 | 0.00 | 0.00 | 0.00 | 75 | 1008.3 |
| 20260509193443 | 87 | 180 | 0.0 | 0.9 | 0.00 | 0.00 | 0.00 | 78 | 1008.3 |
| 20260509192939 | 86 | 228 | 2.6 | 3.5 | 0.00 | 0.00 | 0.00 | 76 | 1008.3 |
| 20260509192436 | 90 | 206 | 0.0 | 3.5 | 0.00 | 0.00 | 0.00 | 72 | 1008.3 |
| 20260509191931 | 87 | 0 | 0.0 | 0.0 | 0.00 | 0.00 | 0.00 | 74 | 1008.4 |
| 20260509191426 | 86 | 151 | 1.7 | 1.7 | 0.00 | 0.00 | 0.00 | 75 | 1008.6 |
| 20260509190923 | 87 | 243 | 0.0 | 2.6 | 0.00 | 0.00 | 0.00 | 76 | 1008.7 |
| 20260509190420 | 87 | 221 | 4.3 | 6.1 | 0.00 | 0.00 | 0.00 | 77 | 1008.8 |
| 20260509185918 | 88 | 254 | 0.0 | 3.5 | 0.00 | 0.00 | 0.00 | 74 | 1008.7 |
| 20260509185415 | 88 | 8 | 0.0 | 2.6 | 0.00 | 0.00 | 0.00 | 75 | 1008.9 |
| 20260509184911 | 87 | 57 | 2.6 | 3.5 | 0.00 | 0.00 | 0.00 | 74 | 1008.8 |
| 20260509184409 | 87 | 208 | 2.6 | 2.6 | 0.00 | 0.00 | 0.00 | 74 | 1008.8 |
| 20260509183905 | 87 | 299 | 1.7 | 5.2 | 0.00 | 0.00 | 0.00 | 73 | 1009.1 |
| 20260509183359 | 87 | 248 | 2.6 | 4.3 | 0.00 | 0.00 | 0.00 | 75 | 1009.3 |
| 20260509182856 | 89 | 221 | 1.7 | 1.7 | 0.00 | 0.00 | 0.00 | 77 | 1009.3 |
| 20260509182353 | 86 | 110 | 2.6 | 2.6 | 0.00 | 0.00 | 0.00 | 80 | 1009.4 |
| 20260509181851 | 86 | 57 | 2.6 | 4.3 | 0.00 | 0.00 | 0.00 | 80 | 1009.1 |
| 20260509181348 | 85 | 8 | 1.7 | 2.6 | 0.00 | 0.00 | 0.00 | 82 | 1009.7 |
| 20260509180845 | 84 | 327 | 1.7 | 2.6 | 0.00 | 0.00 | 0.00 | 84 | 1009.6 |
| 20260509180340 | 83 | 282 | 0.0 | 2.6 | 0.00 | 0.00 | 0.00 | 85 | 1009.7 |
| 20260509175838 | 83 | 55 | 2.6 | 4.3 | 0.00 | 0.00 | 0.00 | 84 | 1009.9 |
| 20260509175334 | 85 | 350 | 2.6 | 2.6 | 0.00 | 0.00 | 0.00 | 82 | 1009.9 |
| 20260509174830 | 86 | 233 | 1.7 | 4.3 | 0.00 | 0.00 | 0.00 | 82 | 1010.0 |
| 20260509174326 | 85 | 0 | 0.0 | 2.6 | 0.00 | 0.00 | 0.00 | 82 | 1009.9 |
| 20260509173822 | 85 | 81 | 0.0 | 2.6 | 0.00 | 0.00 | 0.00 | 83 | 1010.0 |
| 20260509173318 | 84 | 232 | 1.7 | 3.5 | 0.00 | 0.00 | 0.00 | 83 | 1010.1 |
| 20260509172814 | 83 | 253 | 2.6 | 5.2 | 0.00 | 0.00 | 0.00 | 85 | 1010.1 |
| 20260509172311 | 82 | 243 | 2.6 | 3.5 | 0.00 | 0.00 | 0.00 | 87 | 1010.3 |
| 20260509171806 | 82 | 300 | 0.0 | 2.6 | 0.00 | 0.00 | 0.00 | 87 | 1010.2 |
| 20260509171303 | 81 | 294 | 1.7 | 2.6 | 0.00 | 0.00 | 0.00 | 88 | 1010.2 |
| 20260509170759 | 81 | 202 | 2.6 | 3.5 | 0.00 | 0.00 | 0.00 | 88 | 1010.0 |
| 20260509170255 | 81 | 225 | 1.7 | 2.6 | 0.00 | 0.00 | 0.00 | 88 | 1010.3 |
| 20260509165754 | 81 | 109 | 1.7 | 1.7 | 0.00 | 0.00 | 0.00 | 89 | 1010.1 |
| 20260509165249 | 80 | 160 | 0.0 | 1.7 | 0.00 | 0.00 | 0.00 | 90 | 1010.1 |
| 20260509164746 | 80 | 174 | 0.9 | 3.5 | 0.00 | 0.00 | 0.00 | 91 | 1010.5 |
| 20260509164242 | 80 | 221 | 1.7 | 3.5 | 0.00 | 0.00 | 0.00 | 91 | 1010.4 |
| 20260509163744 | 80 | 220 | 1.7 | 2.6 | 0.00 | 0.00 | 0.00 | 92 | 1010.2 |
| 20260509163235 | 80 | 154 | 2.6 | 2.6 | 0.00 | 0.00 | 0.00 | 91 | 1010.2 |
| 20260509162734 | 80 | 241 | 1.7 | 2.6 | 0.00 | 0.00 | 0.00 | 90 | 1010.3 |
| 20260509162228 | 79 | 157 | 0.0 | 1.7 | 0.00 | 0.00 | 0.00 | 91 | 1010.1 |
| 20260509161724 | 79 | 106 | 0.0 | 0.9 | 0.00 | 0.00 | 0.00 | 91 | 1010.0 |
| 20260509161220 | 79 | 270 | 0.9 | 2.6 | 0.00 | 0.00 | 0.00 | 92 | 1010.0 |
| 20260509160715 | 80 | 243 | 1.7 | 2.6 | 0.00 | 0.00 | 0.00 | 91 | 1010.2 |
| 20260509160212 | 80 | 82 | 0.9 | 1.7 | 0.00 | 0.00 | 0.00 | 91 | 1010.1 |
| 20260509155707 | 80 | 243 | 0.0 | 2.6 | 0.00 | 0.00 | 0.00 | 92 | 1010.2 |
| 20260509155204 | 79 | 212 | 2.6 | 4.3 | 0.00 | 0.00 | 0.00 | 92 | 1010.2 |